Main page
METAR-TAF:

METAR-TAF

Airports :

Semnan, Iran

latitude: 35-33N, longitude: 053-23E, elevation: 1171 m

Current weather observation

The report was made 51 minutes ago, at 04:00 UTC
Calm wind
Temperature 7°C
Humidity 76%
Pressure 1017 hPa
Visibility: 7000 m
Few clouds at a height of 4000 ft
Broken clouds at a height of 19000 ft

METAR: OIIS 210400Z 00000KT 7000 FEW040 BKN190 07/03 Q1017

Time: 08:21 (04:51 UTC)


TAF: missing

Weather observations and forecasts of more than 4000 airports (METAR and TAF reports).

The available stations are represented by yellow and red dots on the map.

Hover mouse over dot to see the name of the station.

Then click to see weather observations and forecasts.

To change the map : click on the green buttons with a black cross to zoom in, on the green button with a dash to zoom out, or on the green arrows for adjacent maps.


METAR-TAF: